ZHONGXING-10

Last updated on Sun Oct 06 2024 00:02:39 GMT+0000 (Coordinated Universal Time)

1 37677U 11026A 24279.56438097 -.00000342 00000+0 00000+0 0 9994 2 37677 0.0641 263.8072 0005247 280.0082 144.5811 1.00275756 48783
UTC large
Height (km)
Speed (km/s)
/
Latitude / Longitude
Inclination (degrees)
Orbital Period (minutes)
Azimuth
Elevation
Range (km)
Doppler Factor

Next 0 passes for location: London (51.5072 / 0.1276)

Sorry there are no passes over London.